[[{"header":{"parameterUnit":"m.s-1","parameterCategory":1,"la1":30.2991,"la2":30.254,"lo1":-89.0895,"lo2":-89.0444,"dy":0.0017,"dx":0.0017,"nx":28,"ny":28,"refTime":"2024-04-08T03:00:00:Z","depth":0,"parameterNumber":2,"parameterNumberName":"U-component_of_WINDS"},"data":[0,0,0,0,0,0,0,0,0,0,0,0,0,0,0,0,0,0,0,0,0,0,0,0,0,0,0,0,0,0,0,0,0,0,0,0,0,0,0,0,0,0,0,0,0,0,0,0,0,0,0,0,0,0,0,0,0,0,-4.5505,-4.5506,0,-4.5575,-4.5575,-4.5576,-4.5535,-4.5533,-4.5531,-4.5529,-4.5599,-4.5602,-4.5606,0,0,0,0,0,0,0,0,0,0,0,0,0,-4.5336,-4.5339,-4.5505,-4.5506,-4.5507,-4.5575,-4.5576,-4.5576,-4.5536,-4.5533,-4.5531,-4.5529,-4.5597,-4.5602,-4.5606,0,0,0,0,0,0,0,0,0,0,0,0,0,-4.5408,-4.534,-4.5505,-4.5495,-4.5494,-4.5574,-4.5576,-4.5577,-4.5536,-4.5533,-4.553,-4.5527,-4.5596,-4.5601,-4.5607,-4.57,0,0,-4.5624,-4.5626,0,0,0,0,0,0,0,0,-4.5404,-4.5414,-4.5495,-4.5495,-4.5495,-4.5543,-4.5541,-4.5618,-4.5537,-4.552,-4.5529,-4.5526,-4.5583,-4.5589,-4.5608,-4.5703,-4.5706,-4.5624,-4.5628,-4.563,-4.5631,0,0,0,0,0,0,0,-4.5399,-4.5411,-4.5532,-4.5496,-4.5497,-4.5486,-4.5493,-4.5556,-4.5567,-4.5521,-4.5519,-4.5528,-4.5582,-4.5603,-4.561,-4.5707,-4.5624,-4.5629,-4.5632,-4.5635,-4.5884,-4.5887,0,0,0,0,0,0,-4.5395,-4.5407,-4.553,-4.5535,-4.5441,-4.5492,-4.5499,-4.5531,-4.5566,-4.5569,-4.553,-4.5525,-4.5595,-4.5603,-4.5612,-4.5724,-4.563,-4.5635,-4.5638,-4.588,-4.5884,-4.5888,0,0,0,0,0,0,-4.5391,-4.5406,-4.5527,-4.547,-4.5485,-4.5498,-4.5533,-4.5534,-4.5555,-4.5573,-4.5574,-4.555,-4.5593,-4.5604,-4.5679,-4.5726,-4.5638,-4.5643,-4.5876,-4.5882,-4.5886,-4.5948,0,0,0,0,0,0,-4.5386,-4.5405,-4.5441,-4.5471,-4.5488,-4.5593,-4.5536,-4.5537,-4.5565,-4.5559,-4.5592,-4.5594,-4.5592,-4.5671,-4.5684,-4.5732,-4.5647,-4.5872,-4.5879,-4.5885,-4.5942,-4.5954,-4.5965,0,0,0,0,0,-4.5381,-4.5455,-4.5443,-4.5458,-4.5533,-4.5596,-4.5606,-4.5602,-4.5569,-4.5605,-4.5616,-4.5593,-4.5719,-4.5679,-4.5694,-4.5743,-4.5869,-4.5877,-4.5884,-4.5936,-4.5952,-4.5965,0,0,0,0,0,0,-4.5428,-4.5458,-4.5445,-4.5531,-4.5562,-4.5589,-4.5634,-4.5618,-4.5658,-4.5651,-4.5645,-4.5652,-4.573,-4.5744,-4.5699,-4.5836,-4.5789,-4.58,-4.5824,-4.5838,-4.585,-4.5844,-4.5651,0,0,0,0,0,-4.5449,-4.5498,-4.5522,-4.5595,-4.5612,-4.5621,-4.5648,-4.5643,-4.5674,-4.5686,-4.5703,-4.5733,-4.578,-4.581,-4.5854,-4.5945,-4.5951,-4.5986,-4.5998,-4.6007,-4.6016,-4.6066,-4.6082,-4.5912,-4.5912,-4.5912,0,0,-4.5491,-4.5514,-4.5545,-4.5606,-4.5628,-4.568,-4.5631,-4.5687,-4.5725,-4.5694,-4.5766,-4.578,-4.5813,-4.5897,-4.5934,-4.5911,-4.6065,-4.6017,-4.6024,-4.6028,-4.6075,-4.6091,-4.6105,-4.5917,-4.5916,-4.5916,0,0,-4.5594,-4.5617,-4.5681,-4.5706,-4.5742,-4.5747,-4.5763,-4.5794,-4.5802,-4.5874,-4.5853,-4.5898,-4.5977,-4.6002,-4.6025,-4.6142,-4.6122,-4.6156,-4.6217,-4.6265,-4.6278,-4.629,-4.6331,-4.6346,-4.6165,-4.6166,-4.6166,0,-4.5642,-4.5719,-4.5716,-4.5774,-4.5801,-4.5778,-4.5843,-4.5866,-4.5914,-4.5934,-4.5907,-4.6008,-4.6029,-4.6118,-4.6147,-4.6167,-4.6184,-4.6151,-4.6277,-4.6289,-4.63,-4.6338,-4.6354,-4.6169,-4.6169,-4.6169,-4.6168,0,-4.5776,-4.583,-4.5878,-4.5926,-4.5959,-4.602,-4.6026,-4.606,-4.6053,-4.6062,-4.6136,-4.6161,-4.6209,-4.623,-4.6223,-4.6319,-4.6303,-4.6278,-4.6229,-4.632,-4.6356,-4.6371,-4.6175,-4.6174,-4.6172,-4.6171,0,0,-4.5908,-4.5956,-4.5974,-4.5996,-4.6035,-4.6076,-4.6137,-4.6186,-4.6214,-4.6249,-4.63,-4.6369,-4.6346,-4.6372,-4.6368,-4.6411,-4.6501,-4.638,-4.638,-4.6401,-4.6608,-4.6626,-4.6644,-4.6489,-4.6492,-4.6495,-4.6605,0,-4.6014,-4.612,-4.612,-4.6218,-4.6268,-4.6248,-4.6301,-4.633,-4.6341,-4.6385,-4.6396,-4.6445,-4.6411,-4.6427,-4.6469,-4.6482,-4.6543,-4.6474,-4.6535,-4.6538,-4.6526,-4.6663,-4.6682,-4.6785,-4.6619,-4.6622,-4.6623,0,-4.615,-4.6191,-4.6294,-4.6327,-4.6348,-4.6396,-4.6441,-4.6483,-4.6517,-4.6522,-4.6553,-4.6543,-4.6605,-4.6557,-4.6642,-4.6595,-4.6621,-4.6631,-4.6635,-4.6639,-4.6585,-4.6669,-4.6817,-4.6832,-4.6646,-4.6644,-4.6643,0,-4.6235,-4.6316,-4.6388,-4.6408,-4.6449,-4.6483,-4.6501,-4.6532,-4.6562,-4.6602,-4.6621,-4.6667,-4.6692,-4.6728,-4.6731,-4.6696,-4.6817,-4.6769,-4.6822,-4.6822,-4.6846,-4.6845,-4.6999,-4.6866,-4.6866,-4.6865,-4.6865,0,-4.6352,-4.6416,-4.6427,-4.6472,-4.6543,-4.6543,-4.6614,-4.6629,-4.6657,-4.6704,-4.669,-4.6734,-4.6736,-4.6782,-4.6785,-4.6854,-4.6866,-4.6871,-4.6871,-4.6872,-4.6871,-4.6887,-4.6879,-4.687,-4.6869,-4.6868,-4.6867,0,-4.6458,-4.6469,-4.6546,-4.6579,-4.6589,-4.664,-4.6668,-4.6711,-4.6721,-4.6781,-4.6795,-4.6811,-4.6864,-4.6871,-4.6933,-4.6935,-4.7018,-4.7011,-4.7007,-4.7006,-4.7058,-4.7052,-4.7227,-4.7249,-4.7102,-4.7104,-4.7105,0,-4.6531,-4.658,-4.6619,-4.665,-4.667,-4.672,-4.6751,-4.6754,-4.6787,-4.683,-4.6867,-4.6919,-4.6961,-4.7046,-4.7063,-4.7111,-4.7104,-4.7162,-4.711,-4.711,-4.7103,-4.71,-4.7104,-4.7171,-4.7172,-4.7174,-4.7175,0,-4.6659,-4.6662,-4.6707,-4.6756,-4.6793,-4.6831,-4.6866,-4.6892,-4.69,-4.6937,-4.6992,-4.7024,-4.7088,-4.714,-4.7187,-4.7206,-4.7192,-4.7191,-4.7206,-4.7206,-4.7201,-4.7204,-4.7033,-4.7187,-4.7185,-4.7185,-4.7184,-4.7183,-4.675,-4.6792,-4.6827,-4.6878,-4.6906,-4.694,-4.6982,-4.6998,-4.7044,-4.7097,-4.7096,-4.7156,-4.719,-4.7252,-4.7275,-4.7321,-4.7302,-4.7324,-4.7329,-4.7333,-4.7338,-4.7196,-4.733,-4.733,-4.733,-4.7329,-4.7329,0,-4.6876,-4.6898,-4.6946,-4.6996,-4.7037,-4.7022,-4.7061,-4.7096,-4.7149,-4.7182,-4.7224,-4.7287,-4.7338,-4.736,-4.741,-4.7443,-4.7438,-4.7456,-4.7452,-4.7457,-4.7353,-4.7335,-4.7459,-4.7459,-4.7459,-4.7459,-4.7459,-4.7459,-4.6946,-4.7018,-4.7026,-4.7111,-4.7133,-4.7192,-4.7216,-4.7247,-4.7274,-4.7345,-4.7388,-4.7402,-4.7431,-4.7483,-4.7529,-4.7534,-4.7552,-4.7573,-4.7575,-4.7477,-4.7464,-4.7451,-4.7434,-4.7578,-4.7578,-4.7675,-4.7676,-4.7677]},{"header":{"parameterUnit":"m.s-1","parameterCategory":1,"la1":30.2991,"la2":30.254,"lo1":-89.0895,"lo2":-89.0444,"dy":0.0017,"dx":0.0017,"nx":28,"ny":28,"refTime":"2024-04-08T03:00:00:Z","depth":0,"parameterNumber":3,"parameterNumberName":"V-component_of_WINDS"},"data":[0,0,0,0,0,0,0,0,0,0,0,0,0,0,0,0,0,0,0,0,0,0,0,0,0,0,0,0,0,0,0,0,0,0,0,0,0,0,0,0,0,0,0,0,0,0,0,0,0,0,0,0,0,0,0,0,0,0,1.898,1.898,0,1.8932,1.8931,1.893,1.8918,1.8918,1.8918,1.8919,1.8863,1.8862,1.886,0,0,0,0,0,0,0,0,0,0,0,0,0,1.906,1.9058,1.898,1.898,1.8979,1.8932,1.8931,1.893,1.8918,1.8918,1.8919,1.8919,1.8864,1.8862,1.886,0,0,0,0,0,0,0,0,0,0,0,0,0,1.9019,1.9058,1.8981,1.8967,1.8966,1.8932,1.8931,1.893,1.8918,1.8918,1.8919,1.8919,1.8865,1.8862,1.8859,1.8833,0,0,1.8851,1.885,0,0,0,0,0,0,0,0,1.9022,1.9016,1.897,1.8968,1.8966,1.8931,1.8939,1.8897,1.8918,1.8936,1.8919,1.8919,1.8885,1.8881,1.8871,1.8831,1.8828,1.8851,1.8849,1.8848,1.8848,0,0,0,0,0,0,0,1.9025,1.9018,1.8961,1.8969,1.8967,1.8963,1.8958,1.8931,1.8908,1.8934,1.8933,1.8928,1.8884,1.8873,1.8869,1.8828,1.8851,1.8849,1.8847,1.8846,1.8766,1.8766,0,0,0,0,0,0,1.903,1.9021,1.8962,1.8959,1.8996,1.8961,1.8955,1.8942,1.8909,1.8904,1.8928,1.8928,1.8877,1.8872,1.8867,1.8836,1.8848,1.8846,1.8844,1.8767,1.8766,1.8766,0,0,0,0,0,0,1.9032,1.9025,1.8964,1.899,1.8982,1.8959,1.8944,1.8941,1.893,1.8904,1.8899,1.892,1.8878,1.8871,1.8843,1.8834,1.8845,1.8842,1.8768,1.8767,1.8766,1.8772,0,0,0,0,0,0,1.9034,1.9026,1.9016,1.899,1.8981,1.8942,1.8944,1.894,1.8926,1.8925,1.8896,1.8891,1.8877,1.8847,1.884,1.883,1.884,1.8768,1.8767,1.8766,1.8773,1.8772,1.8771,0,0,0,0,0,1.9037,1.9018,1.9016,1.9009,1.8969,1.8941,1.8936,1.8922,1.8925,1.8915,1.8899,1.8892,1.8836,1.8844,1.8836,1.8826,1.8769,1.8767,1.8766,1.8773,1.8772,1.8771,0,0,0,0,0,0,1.9041,1.9014,1.9011,1.8984,1.8965,1.8939,1.8926,1.8921,1.89,1.89,1.8882,1.8875,1.8849,1.8834,1.8844,1.88,1.8802,1.8799,1.881,1.8809,1.8808,1.8812,1.8838,0,0,0,0,0,1.904,1.9021,1.8998,1.8976,1.8967,1.8948,1.8936,1.8927,1.8907,1.8898,1.8879,1.8858,1.8836,1.8822,1.88,1.8771,1.8765,1.876,1.8759,1.8759,1.8756,1.8741,1.8739,1.8762,1.8762,1.8762,0,0,1.9035,1.9018,1.9007,1.8976,1.8961,1.8942,1.8942,1.892,1.8906,1.8894,1.8867,1.8853,1.8829,1.8801,1.8788,1.8788,1.8749,1.8757,1.8757,1.8754,1.874,1.8738,1.8736,1.8761,1.8761,1.8761,0,0,1.9016,1.9001,1.8982,1.8968,1.8946,1.8934,1.8929,1.8905,1.8896,1.8869,1.8861,1.8843,1.8804,1.8788,1.8774,1.8753,1.8747,1.8746,1.8741,1.8727,1.8725,1.8724,1.8717,1.8715,1.8744,1.8744,1.8744,0,1.9012,1.8984,1.8972,1.8953,1.894,1.8932,1.8912,1.8898,1.8869,1.886,1.8861,1.8815,1.8798,1.8767,1.8762,1.8751,1.8746,1.8749,1.8727,1.8725,1.8723,1.8717,1.8714,1.8744,1.8744,1.8744,1.8744,0,1.8981,1.8962,1.8949,1.8924,1.891,1.889,1.8875,1.8862,1.8855,1.8843,1.8817,1.8796,1.8771,1.8763,1.8755,1.8731,1.8733,1.8731,1.8733,1.8722,1.8715,1.8712,1.8745,1.8744,1.8744,1.8744,0,0,1.8961,1.8933,1.8928,1.8918,1.8894,1.8878,1.8859,1.8837,1.8826,1.8807,1.879,1.8759,1.8759,1.8744,1.8734,1.8722,1.8708,1.8721,1.8721,1.872,1.8681,1.8683,1.868,1.8704,1.8703,1.8703,1.8684,0,1.894,1.8906,1.8897,1.8868,1.885,1.8844,1.8827,1.881,1.8799,1.8782,1.8769,1.8748,1.8748,1.8739,1.8727,1.8712,1.8699,1.8713,1.8687,1.8686,1.8693,1.8676,1.8677,1.866,1.8681,1.868,1.868,0,1.891,1.8894,1.8864,1.8845,1.8837,1.8822,1.8802,1.8786,1.8767,1.876,1.8745,1.8737,1.8716,1.8721,1.8692,1.8701,1.869,1.8682,1.8681,1.8677,1.8682,1.8672,1.8654,1.8652,1.8676,1.8676,1.8676,0,1.89,1.887,1.8849,1.884,1.8817,1.8807,1.8796,1.8778,1.8766,1.8748,1.874,1.872,1.8708,1.8692,1.8679,1.8683,1.8651,1.8654,1.8644,1.8645,1.8637,1.8637,1.8617,1.863,1.863,1.863,1.863,0,1.8877,1.8859,1.8844,1.8831,1.8811,1.88,1.8781,1.877,1.8755,1.8739,1.8731,1.8716,1.87,1.8683,1.8673,1.8651,1.8645,1.8639,1.8636,1.8639,1.864,1.8631,1.8632,1.863,1.863,1.863,1.863,0,1.8861,1.8851,1.8828,1.8809,1.8804,1.879,1.8774,1.8761,1.875,1.8731,1.8726,1.8709,1.8689,1.8675,1.8648,1.8641,1.8618,1.8615,1.8625,1.8623,1.8615,1.8616,1.8587,1.8583,1.8599,1.8599,1.8599,0,1.8847,1.8834,1.8815,1.8805,1.8796,1.8779,1.8768,1.8757,1.8745,1.8725,1.8714,1.8694,1.8678,1.8646,1.8631,1.8611,1.8608,1.8599,1.8604,1.8609,1.8608,1.8609,1.8608,1.8598,1.8598,1.8598,1.8598,0,1.8824,1.882,1.8805,1.8789,1.8776,1.8762,1.8747,1.8739,1.8726,1.8713,1.8694,1.8681,1.8656,1.8636,1.8616,1.8604,1.8599,1.8597,1.8593,1.8596,1.8603,1.86,1.8623,1.8597,1.8597,1.8597,1.8597,1.8597,1.8809,1.8798,1.8783,1.8767,1.8756,1.8743,1.8731,1.8721,1.8705,1.8685,1.8679,1.8659,1.8643,1.8615,1.8603,1.8587,1.8588,1.8583,1.8581,1.858,1.8581,1.8606,1.8583,1.8583,1.8583,1.8583,1.8583,0,1.8786,1.8777,1.8762,1.8744,1.8731,1.873,1.8715,1.8704,1.8687,1.8673,1.8658,1.8637,1.8619,1.8603,1.8584,1.8574,1.8572,1.857,1.857,1.8568,1.8581,1.8586,1.8573,1.8573,1.8573,1.8573,1.8573,1.8573,1.8772,1.8753,1.8748,1.8724,1.8715,1.8697,1.8689,1.8677,1.8666,1.8643,1.8629,1.862,1.8606,1.8586,1.8569,1.8565,1.8558,1.8557,1.8553,1.8565,1.8566,1.8568,1.8572,1.8556,1.8556,1.854,1.854,1.854]}]]